ZHUHAI-1 01 (CAS-4A)

Last updated on Mon Sep 15 2025 00:02:31 GMT+0000 (Coordinated Universal Time)

1 42761U 17034D 25256.84228653 .00214799 24156-4 81823-3 0 9992 2 42761 43.0034 97.2358 0024566 263.2631 96.5447 15.86352093457773
UTC large
Height (km)
Speed (km/s)
/
Latitude / Longitude
Inclination (degrees)
Orbital Period (minutes)
Azimuth
Elevation
Range (km)
Doppler Factor

Next 0 passes for location: London (51.5072 / 0.1276)

Sorry there are no passes over London.